Regional Weather Roundup
Issued by NWS

Home | Current Version | Previous Version | Text Only | Print | Product List | Glossary Off
Versions: 1 2 3 4 5 6 7 8 9 10 11 12 13 14 15 16 17 18 19 20 21 22 23 24 25 26 27 28

000
ASUS45 KBOI 231710
RWRID

IDAHO REGIONAL WEATHER ROUNDUP
NATIONAL WEATHER SERVICE BOISE ID
1000 AM MST FRI FEB 23 2018

NOTE: "FAIR" INDICATES FEW OR NO CLOUDS BELOW 12000 FEET
WITH NO SIGNIFICANT WEATHER AND/OR OBSTRUCTIONS TO VISIBILITY

IDZ012-014-231800-
SOUTHWEST IDAHO


CITY           SKY/WX    TMP DP  RH WIND       PRES   REMARKS
BOISE          SUNNY     19  11  70 NW8       30.29R WCI   9
CALDWELL       SUNNY     23  11  60 W16       30.33R WCI  10
MOUNTAIN HOME  SUNNY     21  12  68 NW23      30.25R WCI   5
$$

IDZ016-017-231800-
SOUTHCENTRAL IDAHO


CITY           SKY/WX    TMP DP  RH WIND       PRES   REMARKS
BURLEY         LGT SNOW  15  10  80 W12       30.15S WCI   2
JEROME         LGT SNOW  14  11  87 SW9       30.18R FOG     WCI   2
TWIN FALLS     CLOUDY    14  10  84 SW10      30.18R WCI   1
$$

IDZ019>023-231800-
SOUTHEAST IDAHO


CITY           SKY/WX    TMP DP  RH WIND       PRES   REMARKS
IDAHO FALLS    CLOUDY    16  12  84 SW8       30.09S WCI   5
POCATELLO      LGT SNOW  17  13  84 W12       30.12R FOG     WCI   4
REXBURG        CLOUDY    18  14  84 W7        30.07R WCI   9
$$

IDZ006-010-011-018-031-032-231800-
CENTRAL IDAHO MOUNTAINS


CITY           SKY/WX    TMP DP  RH WIND       PRES   REMARKS
MCCALL         SUNNY      3   0  87 S7        30.11S WCI  -9
HAILEY         SUNNY     10   1  67 NW9       30.07R WCI  -2
STANLEY          N/A     -7  -8  96 CALM      30.06R
SALMON         MOSUNNY   19   9  65 N5        30.18S WCI  12
CHALLIS        MOSUNNY   16   4  59 VRB3      30.10S
$$

IDZ002-004-006-007-026-231800-
NORTHERN IDAHO


CITY           SKY/WX    TMP DP  RH WIND       PRES   REMARKS
LEWISTON       SUNNY     28  13  53 S10       30.39R WCI  19
LOWELL           N/A     27  21  78 CALM      30.40S
COEUR D`ALENE  CLOUDY    20  15  81 SW3       30.30S
MULLAN PASS    LGT SNOW   8   5  87 VRB3      30.01S FOG
$$




USA.gov is the U.S. government's official web portal to all federal, state and local government web resources and services.